星链-31023 (STARLINK-31023 )

导读

STARLINK-31023是美国SpaceX星链星座的卫星,于2023年12月7日发射,属于Starlink全球低轨卫星互联网项目。星链计划拟部署超4万颗低轨卫星,为全球提供高速低延迟互联网服务,重点覆盖偏远、基础设施不足区域,也可服务军事与应急通信。作为星链大规模组网的一部分,该卫星运行在近地轨道,助力推进全球互联网覆盖,同时也因太空资源占用等问题引发争议。

Basic Information
目录编号:
58522
目录名称:
STARLINK-31023
国际标识:
2023-191Q
轨道中心:
EARTH
卫星名称:
星链-31023
卫星全名:
星链-31023 (STARLINK-31023 )
卫星状态:
已陨落 最后检测时间 2026-03-31
发射日期:
2023-12-07 UTC
国别 :
美国 (US)
星等 :
--
Orbit Information
数据来源 国际轨道数据
星历时间: 2026-03-31T10:27:05+0800
轨道信息已过期79天
半长轴: 6582.239km
偏心率: 0.0005819
轨道倾角: 42.994°
近地点辐角 264.418°
升交点赤经 332.150°
平近点角 95.605°
近地点: 200.271km
远地点: 207.933km
周期: 88.577分钟
每日圈数: 16.257073
Detailed Information
固有亮度:
5
最大亮度:
0.3
卫星平台:
Starlink v2.0 mini
覆盖范围:
全球
运营商:
太空探索技术公司
运营商所在国:
美国
制造商(研发单位):
太空探索技术公司
制造商所在国:
美国
使用方式:
暂无
Satellite Introduction
星链(Starlink)计划是由太空探索技术公司(SpaceX)提出的一个巨型低轨卫星互联网星座项目,计划在2019年至2024年间在太空搭建由约1.2万颗卫星组成的“星链”网络,其中1584颗将部署在地球上空550千米处的近地轨道,并从2020年开始工作。该卫星仍在工作。